| time (UTC) | temp F | wind direction | speed knots | gust knots | rain 1hr in | rain 24hr in | rain mn in | humidity % | barometer mb |
| 20260906105529 | 73 | 58 | 0.9 | 5.2 | 0.00 | 0.03 | 0.00 | 92 | 1012.7 |
| 20260906105028 | 73 | 49 | 0.0 | 5.2 | 0.00 | 0.03 | 0.00 | 91 | 1012.7 |
| 20260906104553 | 73 | 40 | 0.0 | 4.3 | 0.00 | 0.03 | 0.00 | 91 | 1012.6 |
| 20260906104030 | 73 | 89 | 0.9 | 4.3 | 0.00 | 0.03 | 0.00 | 91 | 1012.6 |
| 20260906103529 | 73 | 0 | 0.0 | 5.2 | 0.00 | 0.03 | 0.00 | 91 | 1012.7 |
| 20260906103050 | 73 | 0 | 0.9 | 5.2 | 0.00 | 0.03 | 0.00 | 91 | 1012.6 |
| 20260906102528 | 73 | 47 | 0.0 | 3.5 | 0.00 | 0.03 | 0.00 | 90 | 1012.5 |
| 20260906102029 | 73 | 0 | 0.0 | 5.2 | 0.00 | 0.03 | 0.00 | 90 | 1012.4 |
| 20260906101548 | 73 | 0 | 0.0 | 5.2 | 0.00 | 0.03 | 0.00 | 90 | 1012.4 |
| 20260906101031 | 73 | 0 | 0.9 | 5.2 | 0.00 | 0.03 | 0.00 | 90 | 1012.5 |
| 20260906100529 | 73 | 0 | 0.0 | 3.5 | 0.00 | 0.03 | 0.00 | 90 | 1012.4 |
| 20260906100058 | 73 | 0 | 0.0 | 3.5 | 0.00 | 0.03 | 0.00 | 90 | 1012.2 |
| 20260906095528 | 73 | 0 | 0.0 | 3.5 | 0.00 | 0.03 | 0.00 | 90 | 1012.2 |
| 20260906095028 | 73 | 0 | 0.0 | 3.5 | 0.00 | 0.03 | 0.00 | 89 | 1012.2 |
| 20260906094554 | 73 | 97 | 0.0 | 4.3 | 0.00 | 0.03 | 0.00 | 89 | 1012.0 |
| 20260906094031 | 73 | 0 | 0.0 | 4.3 | 0.00 | 0.03 | 0.00 | 89 | 1012.1 |
| 20260906093529 | 73 | 356 | 0.0 | 4.3 | 0.00 | 0.03 | 0.00 | 89 | 1012.1 |
| 20260906093048 | 73 | 0 | 0.0 | 1.7 | 0.00 | 0.03 | 0.00 | 90 | 1012.1 |
| 20260906092529 | 73 | 0 | 0.0 | 0.9 | 0.00 | 0.03 | 0.00 | 90 | 1012.0 |
| 20260906092029 | 73 | 0 | 0.0 | 0.9 | 0.00 | 0.03 | 0.00 | 91 | 1012.0 |
| 20260906091557 | 73 | 0 | 0.0 | 0.9 | 0.00 | 0.03 | 0.00 | 90 | 1011.9 |
| 20260906091031 | 73 | 0 | 0.0 | 0.9 | 0.00 | 0.03 | 0.00 | 90 | 1012.0 |
| 20260906090529 | 73 | 0 | 0.0 | 0.0 | 0.00 | 0.03 | 0.00 | 91 | 1012.0 |
| 20260906090056 | 73 | 0 | 0.0 | 0.0 | 0.00 | 0.03 | 0.00 | 90 | 1011.9 |
| 20260906085528 | 73 | 0 | 0.0 | 0.0 | 0.00 | 0.03 | 0.00 | 90 | 1011.8 |
| 20260906085028 | 73 | 0 | 0.0 | 0.0 | 0.00 | 0.03 | 0.00 | 90 | 1011.8 |
| 20260906084553 | 73 | 0 | 0.0 | 0.0 | 0.00 | 0.03 | 0.00 | 90 | 1011.9 |
| 20260906084030 | 74 | 0 | 0.0 | 0.0 | 0.00 | 0.03 | 0.00 | 90 | 1011.9 |
| 20260906083528 | 74 | 0 | 0.0 | 0.0 | 0.00 | 0.03 | 0.00 | 90 | 1012.0 |
| 20260906083047 | 74 | 0 | 0.0 | 0.9 | 0.00 | 0.03 | 0.00 | 90 | 1012.1 |
| 20260906082529 | 74 | 0 | 0.0 | 0.9 | 0.00 | 0.03 | 0.00 | 89 | 1012.0 |
| 20260906082029 | 74 | 0 | 0.0 | 0.9 | 0.00 | 0.03 | 0.00 | 90 | 1012.1 |
| 20260906081549 | 74 | 0 | 0.0 | 0.9 | 0.00 | 0.03 | 0.00 | 89 | 1011.9 |
| 20260906081028 | 74 | 0 | 0.0 | 0.9 | 0.00 | 0.03 | 0.00 | 89 | 1011.9 |
| 20260906080530 | 74 | 0 | 0.0 | 0.0 | 0.00 | 0.03 | 0.00 | 89 | 1011.9 |
| 20260906080106 | 74 | 0 | 0.0 | 0.0 | 0.00 | 0.03 | 0.00 | 89 | 1011.9 |
| 20260906075526 | 74 | 0 | 0.0 | 0.0 | 0.00 | 0.03 | 0.00 | 89 | 1011.8 |
| 20260906075030 | 74 | 0 | 0.0 | 0.9 | 0.00 | 0.03 | 0.00 | 89 | 1011.8 |
| 20260906074557 | 74 | 0 | 0.0 | 0.9 | 0.00 | 0.03 | 0.00 | 88 | 1011.9 |
| 20260906074028 | 74 | 0 | 0.0 | 0.9 | 0.00 | 0.03 | 0.00 | 88 | 1011.8 |
| 20260906073531 | 74 | 0 | 0.0 | 0.9 | 0.00 | 0.03 | 0.00 | 88 | 1011.9 |
| 20260906073051 | 75 | 0 | 0.0 | 0.9 | 0.00 | 0.03 | 0.00 | 87 | 1011.9 |
| 20260906072530 | 75 | 0 | 0.0 | 0.9 | 0.00 | 0.03 | 0.00 | 87 | 1011.9 |
| 20260906072028 | 75 | 0 | 0.0 | 0.9 | 0.00 | 0.03 | 0.00 | 87 | 1011.9 |
| 20260906071548 | 75 | 0 | 0.0 | 0.9 | 0.00 | 0.03 | 0.00 | 86 | 1011.9 |
| 20260906071029 | 75 | 0 | 0.0 | 1.7 | 0.00 | 0.03 | 0.00 | 86 | 1011.9 |
| 20260906070532 | 76 | 0 | 0.0 | 2.6 | 0.00 | 0.03 | 0.00 | 86 | 1011.8 |
| 20260906070059 | 76 | 162 | 0.0 | 2.6 | 0.00 | 0.03 | 0.00 | 86 | 1011.9 |
| 20260906065529 | 76 | 0 | 0.0 | 2.6 | 0.00 | 0.03 | 0.00 | 86 | 1012.0 |
| 20260906065029 | 76 | 180 | 0.9 | 2.6 | 0.00 | 0.03 | 0.00 | 85 | 1012.1 |
| 20260906064556 | 76 | 0 | 0.0 | 0.9 | 0.00 | 0.03 | 0.00 | 85 | 1012.0 |
| 20260906064031 | 76 | 0 | 0.0 | 0.9 | 0.00 | 0.03 | 0.00 | 85 | 1012.1 |
| 20260906063528 | 76 | 162 | 0.0 | 0.9 | 0.00 | 0.03 | 0.00 | 85 | 1012.2 |
| 20260906063051 | 76 | 0 | 0.0 | 0.0 | 0.00 | 0.03 | 0.00 | 85 | 1012.3 |
| 20260906062529 | 76 | 0 | 0.0 | 1.7 | 0.00 | 0.03 | 0.00 | 85 | 1012.2 |
| 20260906062031 | 76 | 0 | 0.0 | 1.7 | 0.00 | 0.03 | 0.00 | 84 | 1012.2 |
| 20260906061550 | 76 | 0 | 0.0 | 0.9 | 0.00 | 0.03 | 0.00 | 84 | 1012.2 |
| 20260906061027 | 76 | 0 | 0.0 | 0.9 | 0.00 | 0.03 | 0.00 | 84 | 1012.1 |
| 20260906060529 | 76 | 0 | 0.0 | 1.7 | 0.00 | 0.03 | 0.00 | 84 | 1012.1 |
| 20260906060147 | 76 | 0 | 0.0 | 1.7 | 0.00 | 0.03 | 0.00 | 84 | 1012.1 |
| 20260906055528 | 77 | 117 | 0.0 | 1.7 | 0.00 | 0.03 | 0.00 | 83 | 1012.1 |
| 20260906055028 | 77 | 118 | 0.0 | 1.7 | 0.00 | 0.03 | 0.00 | 83 | 1012.2 |
| 20260906054601 | 77 | 0 | 0.0 | 0.9 | 0.00 | 0.03 | 0.00 | 83 | 1012.1 |
| 20260906054030 | 77 | 0 | 0.0 | 0.9 | 0.00 | 0.03 | 0.00 | 83 | 1012.1 |
| 20260906053530 | 77 | 171 | 0.0 | 0.9 | 0.00 | 0.03 | 0.00 | 83 | 1012.0 |
| 20260906053050 | 77 | 0 | 0.0 | 0.9 | 0.00 | 0.03 | 0.00 | 84 | 1012.0 |
| 20260906052535 | 77 | 0 | 0.0 | 0.9 | 0.00 | 0.03 | 0.00 | 84 | 1012.1 |
| 20260906052030 | 77 | 0 | 0.0 | 0.9 | 0.00 | 0.03 | 0.00 | 84 | 1012.0 |
| 20260906051546 | 77 | 0 | 0.0 | 0.9 | 0.00 | 0.03 | 0.00 | 83 | 1012.1 |
| 20260906051028 | 77 | 0 | 0.0 | 1.7 | 0.00 | 0.03 | 0.00 | 83 | 1012.1 |
| 20260906050527 | 77 | 0 | 0.0 | 1.7 | 0.00 | 0.03 | 0.00 | 83 | 1012.0 |
| 20260906050055 | 78 | 165 | 0.0 | 0.9 | 0.00 | 0.03 | 0.00 | 83 | 1012.0 |
| 20260906045531 | 78 | 0 | 0.0 | 0.9 | 0.00 | 0.03 | 0.00 | 83 | 1011.9 |
| 20260906045031 | 78 | 0 | 0.0 | 0.0 | 0.00 | 0.03 | 0.00 | 82 | 1011.8 |
| 20260906044554 | 78 | 0 | 0.0 | 0.0 | 0.00 | 0.03 | 0.00 | 81 | 1011.9 |
| 20260906044030 | 78 | 0 | 0.0 | 0.9 | 0.00 | 0.03 | 0.00 | 81 | 1011.9 |
| 20260906043526 | 78 | 0 | 0.0 | 1.7 | 0.00 | 0.03 | 0.00 | 81 | 1011.9 |
| 20260906043050 | 78 | 0 | 0.0 | 1.7 | 0.00 | 0.03 | 0.00 | 81 | 1012.0 |
| 20260906042525 | 79 | 191 | 0.0 | 0.9 | 0.00 | 0.03 | 0.00 | 80 | 1012.0 |
| 20260906042026 | 79 | 0 | 0.0 | 1.7 | 0.00 | 0.03 | 0.00 | 80 | 1011.9 |
| 20260906041551 | 79 | 0 | 0.0 | 4.3 | 0.00 | 0.03 | 0.00 | 80 | 1011.8 |
| 20260906041029 | 79 | 0 | 0.0 | 4.3 | 0.00 | 0.03 | 0.00 | 80 | 1011.8 |
| 20260906040528 | 79 | 152 | 0.0 | 2.6 | 0.00 | 0.03 | 0.00 | 80 | 1011.9 |
| 20260906040047 | 79 | 0 | 0.0 | 0.9 | 0.00 | 0.03 | 0.00 | 80 | 1011.9 |
| 20260906035533 | 79 | 0 | 0.0 | 0.9 | 0.00 | 0.03 | 0.03 | 80 | 1011.7 |
| 20260906035029 | 79 | 0 | 0.0 | 0.9 | 0.00 | 0.03 | 0.03 | 80 | 1011.5 |
| 20260906034559 | 79 | 0 | 0.0 | 0.0 | 0.00 | 0.03 | 0.03 | 80 | 1011.6 |
| 20260906034028 | 79 | 192 | 0.0 | 1.7 | 0.00 | 0.03 | 0.03 | 79 | 1011.5 |
| 20260906033527 | 79 | 0 | 0.0 | 1.7 | 0.00 | 0.03 | 0.03 | 79 | 1011.6 |
| 20260906033050 | 78 | 0 | 0.0 | 1.7 | 0.00 | 0.03 | 0.03 | 79 | 1011.5 |
| 20260906032527 | 78 | 0 | 0.0 | 0.0 | 0.00 | 0.03 | 0.03 | 80 | 1011.5 |
| 20260906032031 | 78 | 0 | 0.0 | 0.0 | 0.00 | 0.03 | 0.03 | 80 | 1011.5 |
| 20260906031608 | 78 | 0 | 0.0 | 0.0 | 0.00 | 0.03 | 0.03 | 80 | 1011.5 |
| 20260906031029 | 78 | 0 | 0.0 | 0.0 | 0.00 | 0.03 | 0.03 | 80 | 1011.4 |
| 20260906030528 | 78 | 0 | 0.0 | 0.0 | 0.00 | 0.03 | 0.03 | 80 | 1011.5 |
| 20260906030058 | 78 | 0 | 0.0 | 0.0 | 0.00 | 0.03 | 0.03 | 79 | 1011.6 |
| 20260906025531 | 78 | 0 | 0.0 | 0.0 | 0.00 | 0.03 | 0.03 | 79 | 1011.6 |
| 20260906025031 | 78 | 0 | 0.0 | 0.0 | 0.00 | 0.03 | 0.03 | 79 | 1011.7 |
| 20260906024556 | 79 | 0 | 0.0 | 0.0 | 0.00 | 0.03 | 0.03 | 78 | 1011.6 |
| 20260906024026 | 79 | 0 | 0.0 | 0.0 | 0.00 | 0.03 | 0.03 | 77 | 1011.6 |
| 20260906023526 | 79 | 0 | 0.0 | 0.0 | 0.00 | 0.03 | 0.03 | 77 | 1011.6 |
| 20260906023105 | 79 | 0 | 0.0 | 0.0 | 0.00 | 0.03 | 0.03 | 77 | 1011.6 |
| 20260906022528 | 80 | 0 | 0.0 | 0.0 | 0.00 | 0.03 | 0.03 | 76 | 1011.5 |
| 20260906022029 | 80 | 0 | 0.0 | 0.0 | 0.00 | 0.03 | 0.03 | 76 | 1011.5 |
| 20260906021546 | 80 | 0 | 0.0 | 0.0 | 0.00 | 0.03 | 0.03 | 76 | 1011.4 |
| 20260906021028 | 80 | 0 | 0.0 | 0.0 | 0.00 | 0.03 | 0.03 | 75 | 1011.4 |
| 20260906020531 | 80 | 0 | 0.0 | 0.0 | 0.00 | 0.03 | 0.03 | 74 | 1011.3 |
| 20260906020100 | 80 | 0 | 0.0 | 0.0 | 0.00 | 0.03 | 0.03 | 74 | 1011.2 |
| 20260906015528 | 80 | 0 | 0.0 | 0.0 | 0.00 | 0.03 | 0.03 | 75 | 1011.1 |
| 20260906015028 | 81 | 0 | 0.0 | 0.0 | 0.00 | 0.03 | 0.03 | 73 | 1011.0 |
| 20260906014551 | 81 | 0 | 0.0 | 0.0 | 0.00 | 0.03 | 0.03 | 73 | 1011.0 |
| 20260906014029 | 81 | 0 | 0.0 | 0.0 | 0.00 | 0.03 | 0.03 | 73 | 1011.0 |
| 20260906013532 | 81 | 0 | 0.0 | 1.7 | 0.00 | 0.03 | 0.03 | 72 | 1010.9 |
| 20260906013047 | 81 | 0 | 0.0 | 1.7 | 0.00 | 0.03 | 0.03 | 72 | 1010.8 |
| 20260906012529 | 81 | 152 | 0.0 | 1.7 | 0.00 | 0.03 | 0.03 | 71 | 1010.7 |
| 20260906012029 | 81 | 0 | 0.0 | 1.7 | 0.00 | 0.03 | 0.03 | 71 | 1010.8 |
| 20260906011605 | 82 | 0 | 0.0 | 1.7 | 0.00 | 0.03 | 0.03 | 70 | 1010.7 |
| 20260906011032 | 82 | 0 | 0.0 | 2.6 | 0.00 | 0.03 | 0.03 | 71 | 1010.6 |
| 20260906010529 | 82 | 188 | 0.0 | 2.6 | 0.00 | 0.03 | 0.03 | 70 | 1010.5 |
| 20260906010055 | 82 | 0 | 0.9 | 4.3 | 0.00 | 0.03 | 0.03 | 69 | 1010.5 |
| 20260906005531 | 82 | 181 | 1.7 | 4.3 | 0.00 | 0.03 | 0.03 | 69 | 1010.5 |
| 20260906005029 | 82 | 194 | 0.9 | 2.6 | 0.00 | 0.03 | 0.03 | 69 | 1010.6 |
| 20260906004601 | 82 | 146 | 0.0 | 3.5 | 0.00 | 0.03 | 0.03 | 68 | 1010.5 |
| 20260906004031 | 82 | 150 | 0.0 | 3.5 | 0.00 | 0.03 | 0.03 | 68 | 1010.4 |
| 20260906003529 | 82 | 168 | 0.9 | 3.5 | 0.00 | 0.03 | 0.03 | 67 | 1010.4 |
| 20260906003056 | 82 | 146 | 0.9 | 5.2 | 0.00 | 0.03 | 0.03 | 66 | 1010.6 |
| 20260906002529 | 82 | 166 | 1.7 | 6.1 | 0.00 | 0.03 | 0.03 | 65 | 1010.7 |
| 20260906002031 | 83 | 146 | 1.7 | 7.8 | 0.00 | 0.03 | 0.03 | 64 | 1010.8 |
| 20260906001554 | 83 | 176 | 2.6 | 7.8 | 0.00 | 0.03 | 0.03 | 65 | 1011.0 |
| 20260906001031 | 83 | 162 | 2.6 | 5.2 | 0.00 | 0.03 | 0.03 | 64 | 1011.0 |
| 20260906000531 | 83 | 179 | 1.7 | 4.3 | 0.00 | 0.03 | 0.03 | 63 | 1011.1 |
| 20260906000100 | 84 | 167 | 1.7 | 3.5 | 0.00 | 0.03 | 0.03 | 63 | 1011.2 |
| 20260905235530 | 84 | 192 | 1.7 | 4.3 | 0.00 | 0.03 | 0.03 | 64 | 1011.3 |
| 20260905235033 | 83 | 186 | 0.9 | 4.3 | 0.00 | 0.03 | 0.03 | 64 | 1011.4 |
| 20260905234554 | 83 | 179 | 0.9 | 3.5 | 0.00 | 0.03 | 0.03 | 64 | 1011.4 |
| 20260905234032 | 83 | 155 | 0.0 | 2.6 | 0.00 | 0.03 | 0.03 | 65 | 1011.3 |
| 20260905233530 | 83 | 155 | 0.0 | 6.1 | 0.00 | 0.03 | 0.03 | 66 | 1011.2 |
| 20260905233103 | 84 | 0 | 0.0 | 6.1 | 0.00 | 0.03 | 0.03 | 65 | 1011.3 |
| 20260905232529 | 84 | 131 | 2.6 | 7.0 | 0.00 | 0.03 | 0.03 | 64 | 1011.3 |
| 20260905232034 | 84 | 152 | 3.5 | 8.7 | 0.00 | 0.03 | 0.03 | 64 | 1011.2 |
| 20260905231603 | 85 | 177 | 3.5 | 8.7 | 0.00 | 0.03 | 0.03 | 63 | 1011.2 |
| 20260905231031 | 87 | 161 | 4.3 | 8.7 | 0.00 | 0.03 | 0.03 | 61 | 1011.1 |
| 20260905230531 | 88 | 198 | 1.7 | 4.3 | 0.00 | 0.03 | 0.03 | 63 | 1011.1 |
| 20260905230048 | 89 | 180 | 0.0 | 3.5 | 0.00 | 0.03 | 0.03 | 62 | 1011.0 |
| 20260905225531 | 90 | 179 | 0.9 | 4.3 | 0.00 | 0.03 | 0.03 | 61 | 1010.9 |
| 20260905225032 | 91 | 164 | 0.9 | 4.3 | 0.00 | 0.03 | 0.03 | 59 | 1010.8 |
| 20260905224558 | 91 | 179 | 1.7 | 4.3 | 0.00 | 0.03 | 0.03 | 57 | 1010.8 |
| 20260905224034 | 93 | 0 | 0.0 | 3.5 | 0.00 | 0.03 | 0.03 | 52 | 1010.8 |
| 20260905223529 | 93 | 49 | 0.9 | 6.1 | 0.00 | 0.03 | 0.03 | 53 | 1010.7 |
| 20260905223056 | 93 | 93 | 1.7 | 6.1 | 0.00 | 0.03 | 0.03 | 53 | 1010.6 |
| 20260905222532 | 93 | 63 | 0.0 | 1.7 | 0.00 | 0.03 | 0.03 | 54 | 1010.6 |
| 20260905222033 | 93 | 84 | 0.0 | 1.7 | 0.00 | 0.03 | 0.03 | 55 | 1010.6 |
| 20260905221602 | 93 | 0 | 0.0 | 1.7 | 0.00 | 0.03 | 0.03 | 55 | 1010.5 |
| 20260905221032 | 93 | 70 | 0.0 | 1.7 | 0.00 | 0.03 | 0.03 | 54 | 1010.5 |
| 20260905220531 | 94 | 72 | 0.0 | 2.6 | 0.00 | 0.03 | 0.03 | 54 | 1010.5 |
| 20260905220101 | 94 | 0 | 0.0 | 2.6 | 0.00 | 0.03 | 0.03 | 53 | 1010.6 |
| 20260905215534 | 94 | 0 | 0.0 | 4.3 | 0.00 | 0.03 | 0.03 | 53 | 1010.6 |
| 20260905215028 | 94 | 13 | 0.9 | 4.3 | 0.00 | 0.03 | 0.03 | 53 | 1010.7 |
| 20260905214604 | 93 | 21 | 2.6 | 4.3 | 0.00 | 0.03 | 0.03 | 53 | 1010.7 |
| 20260905214029 | 94 | 347 | 0.9 | 4.3 | 0.00 | 0.03 | 0.03 | 52 | 1010.8 |
| 20260905213532 | 95 | 258 | 0.9 | 4.3 | 0.00 | 0.03 | 0.03 | 51 | 1010.8 |
| 20260905213056 | 96 | 51 | 0.9 | 5.2 | 0.00 | 0.03 | 0.03 | 51 | 1010.8 |
| 20260905212531 | 96 | 355 | 1.7 | 5.2 | 0.00 | 0.03 | 0.03 | 50 | 1010.7 |
| 20260905212028 | 96 | 333 | 0.0 | 3.5 | 0.00 | 0.03 | 0.03 | 49 | 1010.8 |
| 20260905211600 | 95 | 4 | 0.0 | 5.2 | 0.00 | 0.03 | 0.03 | 50 | 1010.8 |
| 20260905211028 | 95 | 48 | 1.7 | 5.2 | 0.00 | 0.03 | 0.03 | 50 | 1010.7 |
| 20260905210527 | 96 | 10 | 0.0 | 3.5 | 0.00 | 0.03 | 0.03 | 49 | 1010.7 |
| 20260905210107 | 96 | 0 | 0.0 | 3.5 | 0.00 | 0.03 | 0.03 | 48 | 1010.8 |
| 20260905205533 | 96 | 360 | 0.0 | 3.5 | 0.00 | 0.03 | 0.03 | 47 | 1010.9 |
| 20260905205029 | 95 | 53 | 0.0 | 6.1 | 0.00 | 0.03 | 0.03 | 49 | 1011.0 |
| 20260905204556 | 94 | 37 | 1.7 | 6.1 | 0.00 | 0.03 | 0.03 | 50 | 1011.0 |
| 20260905204031 | 94 | 40 | 2.6 | 6.1 | 0.00 | 0.03 | 0.03 | 49 | 1011.2 |
| 20260905203531 | 95 | 189 | 0.0 | 6.1 | 0.00 | 0.03 | 0.03 | 49 | 1011.1 |
| 20260905203058 | 94 | 352 | 0.9 | 7.8 | 0.00 | 0.03 | 0.03 | 50 | 1011.3 |
| 20260905202532 | 94 | 351 | 3.5 | 7.8 | 0.00 | 0.03 | 0.03 | 50 | 1011.3 |
| 20260905202030 | 94 | 0 | 0.9 | 6.1 | 0.00 | 0.03 | 0.03 | 50 | 1011.5 |
| 20260905201546 | 93 | 0 | 2.6 | 7.0 | 0.00 | 0.03 | 0.03 | 50 | 1011.4 |
| 20260905201028 | 94 | 34 | 0.0 | 7.0 | 0.00 | 0.03 | 0.03 | 50 | 1011.5 |
| 20260905200530 | 94 | 339 | 0.0 | 7.8 | 0.00 | 0.03 | 0.03 | 50 | 1011.6 |
| 20260905200127 | 93 | 10 | 4.3 | 7.8 | 0.00 | 0.03 | 0.03 | 51 | 1011.7 |
| 20260905195528 | 93 | 8 | 4.3 | 6.1 | 0.00 | 0.03 | 0.03 | 51 | 1011.7 |
| 20260905195031 | 94 | 349 | 0.0 | 7.0 | 0.00 | 0.03 | 0.03 | 50 | 1011.7 |
| 20260905194552 | 93 | 302 | 0.9 | 7.8 | 0.00 | 0.03 | 0.03 | 51 | 1011.8 |
| 20260905194032 | 93 | 349 | 2.6 | 7.8 | 0.00 | 0.03 | 0.03 | 51 | 1012.0 |
| 20260905193530 | 94 | 6 | 0.9 | 5.2 | 0.00 | 0.03 | 0.03 | 51 | 1012.1 |
| 20260905193047 | 93 | 0 | 0.9 | 6.1 | 0.00 | 0.03 | 0.03 | 51 | 1012.1 |
| 20260905192532 | 93 | 0 | 2.6 | 6.1 | 0.00 | 0.03 | 0.03 | 51 | 1012.2 |
| 20260905192028 | 95 | 0 | 0.0 | 3.5 | 0.00 | 0.03 | 0.03 | 50 | 1012.2 |
| 20260905191546 | 94 | 0 | 0.0 | 3.5 | 0.00 | 0.03 | 0.03 | 51 | 1012.3 |
| 20260905191029 | 94 | 357 | 0.0 | 1.7 | 0.00 | 0.03 | 0.03 | 51 | 1012.3 |
| 20260905190529 | 94 | 18 | 0.0 | 1.7 | 0.00 | 0.03 | 0.03 | 53 | 1012.4 |
| 20260905190100 | 94 | 43 | 0.9 | 4.3 | 0.00 | 0.03 | 0.03 | 51 | 1012.4 |
| 20260905185530 | 95 | 195 | 0.9 | 4.3 | 0.00 | 0.03 | 0.03 | 52 | 1012.5 |
| 20260905185031 | 94 | 0 | 0.0 | 3.5 | 0.00 | 0.03 | 0.03 | 51 | 1012.6 |
| 20260905184601 | 93 | 166 | 0.0 | 4.3 | 0.00 | 0.03 | 0.03 | 52 | 1012.7 |
| 20260905184028 | 93 | 354 | 1.7 | 4.3 | 0.00 | 0.03 | 0.03 | 53 | 1012.8 |
| 20260905183528 | 93 | 292 | 0.0 | 3.5 | 0.00 | 0.03 | 0.03 | 51 | 1012.9 |
| 20260905183051 | 92 | 0 | 1.7 | 3.5 | 0.00 | 0.03 | 0.03 | 53 | 1013.0 |
| 20260905182531 | 93 | 147 | 0.9 | 2.6 | 0.00 | 0.03 | 0.03 | 52 | 1013.0 |
| 20260905182029 | 93 | 115 | 0.0 | 4.3 | 0.00 | 0.03 | 0.03 | 53 | 1013.1 |
| 20260905181548 | 93 | 0 | 1.7 | 4.3 | 0.00 | 0.03 | 0.03 | 51 | 1013.1 |
| 20260905181029 | 93 | 160 | 0.9 | 4.3 | 0.00 | 0.03 | 0.03 | 52 | 1013.2 |
| 20260905180531 | 93 | 179 | 0.9 | 4.3 | 0.00 | 0.03 | 0.03 | 52 | 1013.2 |
| 20260905180112 | 93 | 155 | 0.9 | 4.3 | 0.00 | 0.03 | 0.03 | 51 | 1013.3 |
| 20260905175529 | 93 | 231 | 1.7 | 4.3 | 0.00 | 0.03 | 0.03 | 52 | 1013.3 |
| 20260905175029 | 92 | 0 | 0.0 | 2.6 | 0.00 | 0.03 | 0.03 | 52 | 1013.3 |
| 20260905174554 | 93 | 116 | 0.0 | 3.5 | 0.00 | 0.03 | 0.03 | 52 | 1013.3 |
| 20260905174031 | 92 | 184 | 0.9 | 4.3 | 0.00 | 0.03 | 0.03 | 53 | 1013.3 |
| 20260905173528 | 91 | 0 | 1.7 | 4.3 | 0.00 | 0.03 | 0.03 | 53 | 1013.3 |
| 20260905173121 | 91 | 190 | 0.9 | 5.2 | 0.00 | 0.03 | 0.03 | 52 | 1013.3 |
| 20260905172528 | 90 | 158 | 2.6 | 5.2 | 0.00 | 0.03 | 0.03 | 54 | 1013.4 |
| 20260905172030 | 90 | 154 | 0.9 | 5.2 | 0.00 | 0.03 | 0.03 | 54 | 1013.5 |
| 20260905171558 | 90 | 162 | 1.7 | 5.2 | 0.00 | 0.03 | 0.03 | 54 | 1013.5 |
| 20260905171028 | 90 | 167 | 2.6 | 4.3 | 0.00 | 0.03 | 0.03 | 54 | 1013.5 |
| 20260905170529 | 89 | 0 | 1.7 | 3.5 | 0.00 | 0.03 | 0.03 | 55 | 1013.6 |
| 20260905165535 | 89 | 90 | 0.9 | 5.2 | 0.00 | 0.03 | 0.03 | 56 | 1013.8 |
| 20260905165028 | 89 | 158 | 2.6 | 5.2 | 0.00 | 0.03 | 0.03 | 55 | 1014.0 |
| 20260905164558 | 89 | 223 | 1.7 | 5.2 | 0.00 | 0.03 | 0.03 | 56 | 1014.1 |
| 20260905164029 | 88 | 128 | 0.0 | 7.8 | 0.00 | 0.03 | 0.03 | 58 | 1014.2 |
| 20260905163528 | 88 | 172 | 2.6 | 7.8 | 0.00 | 0.03 | 0.03 | 56 | 1014.2 |
| 20260905163051 | 87 | 156 | 1.7 | 6.1 | 0.00 | 0.03 | 0.03 | 58 | 1014.1 |
| 20260905162529 | 87 | 139 | 3.5 | 6.1 | 0.00 | 0.03 | 0.03 | 58 | 1014.3 |
| 20260905162028 | 87 | 155 | 2.6 | 6.1 | 0.00 | 0.03 | 0.03 | 57 | 1014.3 |
| 20260905161559 | 87 | 160 | 0.9 | 6.1 | 0.00 | 0.03 | 0.03 | 60 | 1014.2 |
| 20260905161031 | 87 | 191 | 1.7 | 6.1 | 0.00 | 0.03 | 0.03 | 60 | 1014.1 |
| 20260905160529 | 87 | 141 | 1.7 | 4.3 | 0.00 | 0.03 | 0.03 | 63 | 1014.1 |
| 20260905160100 | 86 | 156 | 0.0 | 4.3 | 0.00 | 0.03 | 0.03 | 63 | 1014.3 |
| 20260905155534 | 85 | 184 | 1.7 | 7.0 | 0.00 | 0.03 | 0.03 | 64 | 1014.3 |
| 20260905155028 | 85 | 171 | 2.6 | 7.0 | 0.00 | 0.03 | 0.03 | 66 | 1014.3 |
| 20260905154552 | 85 | 198 | 0.9 | 6.1 | 0.00 | 0.03 | 0.03 | 66 | 1014.4 |
| 20260905154033 | 84 | 171 | 2.6 | 6.1 | 0.00 | 0.03 | 0.03 | 67 | 1014.5 |
| 20260905153531 | 84 | 243 | 2.6 | 6.1 | 0.00 | 0.03 | 0.03 | 68 | 1014.5 |
| 20260905153051 | 83 | 199 | 2.6 | 8.7 | 0.00 | 0.03 | 0.03 | 69 | 1014.4 |
| 20260905152530 | 82 | 186 | 3.5 | 8.7 | 0.00 | 0.03 | 0.03 | 70 | 1014.5 |
| 20260905152031 | 82 | 180 | 2.6 | 7.0 | 0.00 | 0.03 | 0.03 | 71 | 1014.5 |
| 20260905151559 | 82 | 173 | 2.6 | 7.0 | 0.00 | 0.03 | 0.03 | 73 | 1014.4 |
| 20260905151031 | 82 | 172 | 1.7 | 6.1 | 0.00 | 0.03 | 0.03 | 70 | 1014.5 |
| 20260905150532 | 81 | 193 | 3.5 | 7.0 | 0.00 | 0.03 | 0.03 | 71 | 1014.4 |
| 20260905150053 | 81 | 172 | 3.5 | 7.8 | 0.00 | 0.03 | 0.03 | 72 | 1014.5 |
| 20260905145531 | 81 | 189 | 1.7 | 7.8 | 0.00 | 0.03 | 0.03 | 73 | 1014.7 |
| 20260905145031 | 80 | 144 | 2.6 | 8.7 | 0.00 | 0.03 | 0.03 | 75 | 1014.8 |
| 20260905144559 | 80 | 159 | 4.3 | 8.7 | 0.00 | 0.03 | 0.03 | 76 | 1014.6 |
| 20260905144031 | 79 | 170 | 3.5 | 8.7 | 0.00 | 0.03 | 0.03 | 76 | 1014.7 |
| 20260905143528 | 79 | 128 | 3.5 | 7.0 | 0.00 | 0.03 | 0.03 | 77 | 1014.8 |
| 20260905143102 | 79 | 140 | 1.7 | 8.7 | 0.00 | 0.03 | 0.03 | 80 | 1014.9 |
| 20260905142533 | 78 | 143 | 2.6 | 8.7 | 0.01 | 0.03 | 0.03 | 81 | 1014.7 |
| 20260905142028 | 78 | 138 | 2.6 | 8.7 | 0.02 | 0.03 | 0.03 | 80 | 1014.7 |
| 20260905141558 | 77 | 0 | 1.7 | 7.0 | 0.02 | 0.03 | 0.03 | 84 | 1014.9 |
| 20260905141029 | 77 | 115 | 1.7 | 4.3 | 0.02 | 0.03 | 0.03 | 85 | 1014.8 |
| 20260905140531 | 76 | 155 | 1.7 | 7.0 | 0.02 | 0.03 | 0.03 | 86 | 1014.8 |
| 20260905135527 | 75 | 191 | 1.7 | 6.1 | 0.02 | 0.03 | 0.03 | 87 | 1015.1 |
| 20260905135029 | 75 | 0 | 1.7 | 7.0 | 0.02 | 0.03 | 0.03 | 87 | 1015.1 |
| 20260905134559 | 75 | 157 | 2.6 | 7.0 | 0.02 | 0.03 | 0.03 | 87 | 1015.2 |
| 20260905134031 | 75 | 157 | 0.9 | 3.5 | 0.02 | 0.03 | 0.03 | 87 | 1015.1 |
| 20260905133530 | 75 | 145 | 0.0 | 6.1 | 0.02 | 0.03 | 0.03 | 88 | 1015.5 |
| 20260905133058 | 75 | 0 | 0.9 | 6.1 | 0.02 | 0.03 | 0.03 | 87 | 1015.8 |
| 20260905132530 | 75 | 102 | 0.9 | 4.3 | 0.01 | 0.02 | 0.02 | 86 | 1015.6 |
| 20260905132028 | 76 | 124 | 0.0 | 4.3 | 0.00 | 0.01 | 0.01 | 86 | 1015.7 |
| 20260905131557 | 75 | 0 | 0.9 | 4.3 | 0.00 | 0.01 | 0.01 | 86 | 1015.7 |
| 20260905131027 | 75 | 158 | 0.0 | 4.3 | 0.00 | 0.01 | 0.01 | 87 | 1015.4 |
| 20260905130529 | 74 | 31 | 0.0 | 8.7 | 0.00 | 0.01 | 0.01 | 87 | 1015.3 |
| 20260905130058 | 74 | 20 | 0.9 | 8.7 | 0.00 | 0.01 | 0.01 | 88 | 1015.2 |
| 20260905125530 | 74 | 110 | 1.7 | 7.0 | 0.00 | 0.01 | 0.01 | 88 | 1015.1 |
| 20260905125027 | 74 | 123 | 0.0 | 6.1 | 0.00 | 0.01 | 0.01 | 89 | 1015.4 |
| 20260905124600 | 74 | 120 | 1.7 | 6.1 | 0.01 | 0.01 | 0.01 | 89 | 1015.1 |
| 20260905124034 | 74 | 192 | 0.9 | 4.3 | 0.01 | 0.01 | 0.01 | 90 | 1015.2 |
| 20260905123527 | 74 | 117 | 0.0 | 4.3 | 0.01 | 0.01 | 0.01 | 90 | 1014.4 |
| 20260905123052 | 74 | 137 | 0.9 | 4.3 | 0.01 | 0.01 | 0.01 | 89 | 1014.2 |
| 20260905122528 | 74 | 158 | 0.9 | 2.6 | 0.01 | 0.01 | 0.01 | 89 | 1014.3 |
| 20260905122028 | 74 | 155 | 0.9 | 2.6 | 0.01 | 0.01 | 0.01 | 89 | 1014.5 |
| 20260905121600 | 74 | 0 | 0.0 | 0.9 | 0.01 | 0.01 | 0.01 | 89 | 1014.7 |
| 20260905121030 | 74 | 0 | 0.0 | 4.3 | 0.01 | 0.01 | 0.01 | 89 | 1014.4 |
| 20260905120529 | 74 | 0 | 0.9 | 4.3 | 0.01 | 0.01 | 0.01 | 88 | 1014.5 |
| 20260905120109 | 75 | 177 | 1.7 | 6.1 | 0.01 | 0.01 | 0.01 | 87 | 1014.2 |
| 20260905115527 | 75 | 0 | 0.0 | 6.1 | 0.01 | 0.01 | 0.01 | 87 | 1014.5 |
| 20260905115031 | 76 | 0 | 1.7 | 6.1 | 0.01 | 0.01 | 0.01 | 86 | 1014.3 |
| 20260905114607 | 77 | 157 | 1.7 | 4.3 | 0.00 | 0.00 | 0.00 | 83 | 1014.1 |
| 20260905114027 | 77 | 160 | 0.0 | 2.6 | 0.00 | 0.00 | 0.00 | 82 | 1014.0 |
| 20260905113533 | 77 | 0 | 0.0 | 2.6 | 0.00 | 0.00 | 0.00 | 82 | 1013.8 |
| 20260905113058 | 77 | 181 | 0.9 | 4.3 | 0.00 | 0.00 | 0.00 | 82 | 1013.8 |
| 20260905112530 | 77 | 146 | 0.0 | 4.3 | 0.00 | 0.00 | 0.00 | 83 | 1013.9 |
| 20260905112030 | 77 | 130 | 0.9 | 4.3 | 0.00 | 0.00 | 0.00 | 83 | 1013.9 |
| 20260905111633 | 77 | 0 | 0.0 | 2.6 | 0.00 | 0.00 | 0.00 | 84 | 1013.9 |
| 20260905111030 | 77 | 0 | 0.9 | 2.6 | 0.00 | 0.00 | 0.00 | 85 | 1013.7 |
| 20260905110529 | 77 | 0 | 0.0 | 4.3 | 0.00 | 0.00 | 0.00 | 86 | 1013.9 |
| 20260905110056 | 77 | 145 | 0.9 | 4.3 | 0.00 | 0.00 | 0.00 | 87 | 1013.8 |